Location: Unspecified
(39.5650°N, 75.5970°W)
Time: 04:18:01
(UTC+00:00)

Daily predictions for brighter satellites

Satellite Brightness Start Highest point End
(mag) Time Altitude Azimuth Time Altitude Azimuth Time Altitude Azimuth
H-2A R/B 4.2 00:09:18 13° SSE 00:09:18 13° SSE 00:09:49 10° SSE
Cosmos 2344 4.2 00:07:36 10° WSW 00:14:50 48° NW 00:21:22 13° NNE
Cosmos 2369 Rocket 4.0 00:12:06 10° WSW 00:16:56 29° WNW 00:21:50 10° N
IRS-1C Rocket 3.9 00:12:34 10° SSE 00:17:47 72° ENE 00:23:02 10° N
BREEZE-M DEB (TANK) 4.1 00:13:27 10° NW 00:17:36 25° N 00:17:36 25° N
X-37B 3.2 00:15:59 10° SW 00:16:30 14° SSW 00:16:30 14° SSW
Tiangong 4.1 00:19:02 10° SSW 00:19:13 11° SSW 00:19:13 11° SSW
Lacrosse 5 rocket 2.1 00:19:11 10° WSW 00:22:58 43° NW 00:22:58 43° NW
Okean 1-7 Rocket 3.5 00:19:22 10° S 00:23:40 81° SW 00:23:40 81° SW
USA 307 3.9 00:26:17 10° SW 00:29:00 38° SSW 00:29:00 38° SSW
Meteor 1-11 4.3 00:26:37 10° SSW 00:32:25 77° W 00:36:39 19° N
CSL-04 Debris 4.1 00:42:30 81° WSW 00:42:35 81° WSW 00:48:01 10° NNW
CSL-04 Rocket 4.2 00:46:24 48° NNW 00:46:24 48° NNW 00:50:16 10° NNW
SeaSat 1 3.5 00:48:49 38° NNW 00:49:48 42° WNW 00:54:24 10° SW
Cosmos 1727 Rocket 4.2 00:43:34 10° SSW 00:49:50 71° W 00:56:12 10° N
Lacrosse 4 Rocket 4.0 01:01:27 10° NW 01:02:21 16° NW 01:02:21 16° NW
Centaur D-1A AC-31 4.5 02:21:10 10° WSW 02:41:20 35° SW 02:41:20 35° SW
FALCON 9 R/B 4.1 08:49:24 44° S 08:50:40 45° SSE 09:25:39 10° ESE
ATLAS 3B CENTAUR R/B 4.3 09:14:48 31° S 09:14:48 31° S 09:19:38 10° SE
CZ-2C R/B 3.9 09:22:18 10° SE 09:27:00 36° ENE 09:30:24 17° NNE
Cosmos 968 Rocket 4.0 09:36:01 57° E 09:36:01 57° E 09:40:39 10° SSE
CZ-4C R/B 4.5 09:32:03 16° N 09:36:43 30° NE 09:43:46 10° E
Gbstr 26 Del rocket 4.4 09:53:57 57° WSW 09:55:45 77° NW 10:03:57 10° NE
BREEZE-M DEB (TANK) 4.4 09:57:53 18° E 09:57:53 18° E 09:58:34 10° E
Envisat 2.8 10:00:04 10° NNE 10:05:10 88° WNW 10:10:15 10° SSW
MOS 1-B Rocket 4.4 10:00:04 10° S 10:06:21 54° W 10:13:47 10° NNW
COSMO-SKYMED 1 3.0 10:03:33 10° SSE 10:07:49 62° ENE 10:10:05 27° N
Cosmos 1992 Rocket 3.8 10:08:22 43° SSW 10:10:08 81° WNW 10:15:25 10° NNE
Cosmos 1295 Rocket 4.4 10:07:12 10° S 10:13:23 87° E 10:19:41 10° N
Cosmos 2184 Rocket 4.1 10:13:18 10° SSW 10:19:30 53° W 10:25:41 10° N
Cosmos 1900 4.2 10:18:18 26° SSW 10:21:02 86° ESE 10:25:59 10° NNE
SeaSat 1 2.3 10:17:31 10° SSE 10:22:25 71° WSW 10:24:08 41° NW
Cosmos 1455 Rocket 4.4 10:21:39 10° SSE 10:25:43 41° E 10:29:51 10° NNE
Cosmos 1610 Rocket 4.4 10:20:06 10° SSW 10:26:21 72° W 10:32:35 10° N
COSMOS 2455 3.5 10:20:38 10° S 10:26:30 56° ESE 10:32:23 10° NE
Meteor 1-16 Rocket 4.2 10:22:58 10° S 10:28:42 88° E 10:34:37 10° N
Genesis I 3.1 10:30:22 63° WNW 10:30:32 64° WNW 10:34:33 10° NNE
SKYMED 3 4.4 10:27:32 10° S 10:31:51 70° W 10:34:24 24° NNW
USA 215 3.4 10:28:41 10° NE 10:35:14 77° SE 10:41:45 10° SW
Cosmos 2074 Rocket 4.5 10:33:54 10° SW 10:39:32 35° WNW 10:45:14 10° N
SL-24 R/B - RUBIN 2 3.7 10:39:11 42° W 10:39:56 47° WSW 10:44:07 10° S
FALCON 9 DEB 2.8 10:44:55 46° SSW 10:45:33 66° SE 10:48:21 10° NE
Meteor 1-31 Rocket 2.9 10:44:06 10° N 10:47:45 45° WNW 10:51:22 10° SSW
Cosmos 1328 4.4 10:45:38 10° N 10:49:36 58° E 10:53:34 10° SSE
USA 229 DEB 3.9 10:46:03 15° NW 10:52:29 70° WSW 11:00:18 10° SSE
USA 229 3.9 10:46:07 15° NW 10:52:34 70° WSW 11:00:24 10° SSE
Cosmos 1892 Rocket 3.6 10:48:53 10° N 10:53:23 84° E 10:57:50 10° S
Cosmos 1939 Rocket 3.7 10:49:40 10° NNE 10:53:40 54° E 10:57:42 10° S
Cosmos 1953 2.6 10:50:03 10° SSW 10:53:52 41° W 10:57:43 10° N
Cosmos 44 Rocket 3.1 10:52:13 18° NW 10:55:43 76° WSW 11:00:21 10° SSE
SKYMED 2 4.1 10:51:56 10° SSW 10:55:56 36° W 10:58:41 18° NW
Okean 1 Rocket 3.9 10:58:03 26° WNW 10:58:03 26° WNW 11:01:34 10° NNW
H-2A R/B 3.9 10:55:05 10° SE 10:58:57 32° ENE 11:02:47 10° N
Cosmos 1867 4.2 10:57:57 10° SSW 11:03:17 61° ESE 11:08:41 10° NE
SJ 16-02 2.5 10:59:34 10° N 11:03:49 43° ENE 11:08:02 10° SE
CZ-2C R/B 3.5 11:03:02 10° SSW 11:07:20 26° W 11:11:44 10° NW
ATLAS 2A CENTAUR R/B 4.3 11:06:47 10° S 11:08:52 13° SE 11:12:01 10° ESE
USA 267 4.3 11:03:07 10° E 11:09:03 38° NNE 11:15:00 10° NW
Nadezhda 3 Rocket 4.4 11:04:09 10° NNW 11:09:41 36° W 11:15:12 10° SSW
FALCON 9 DEB 2.8 11:07:06 11° SW 11:09:49 71° SE 11:12:40 10° NE
Cosmos 1300 2.7 11:09:51 10° SSW 11:13:33 52° W 11:17:17 10° N
IRIDIUM 104 4.3 11:08:34 10° N 11:13:47 76° W 11:18:58 10° S
Meteor 1-11 4.4 11:08:40 10° N 11:14:18 78° E 11:19:52 10° SSE
Cosmos 2082 Rocket 4.4 11:11:13 10° SSE 11:15:58 29° ESE 11:20:43 10° NE
CZ-4C R/B 3.2 11:12:47 10° S 11:16:13 50° W 11:19:43 10° NNW
SL-8 R/B 4.2 11:13:53 17° W 11:17:18 43° NNW 11:21:53 10° NE
Cosmos 1697 Rocket 4.0 11:13:32 10° N 11:18:50 40° ENE 11:24:06 10° SE
IRAS Rocket 4.4 11:17:02 10° SSE 11:22:33 77° ENE 11:28:09 10° NNW
CZ-4B R/B 3.1 11:18:21 10° N 11:22:50 65° WNW 11:27:16 10° SSW
IRIDIUM 114 4.3 11:17:46 10° N 11:22:55 62° W 11:28:02 10° SSW
Cosmos 1354 Rocket 4.1 11:18:11 10° NNW 11:23:20 54° WSW 11:28:25 10° S
ADEOS 3.8 11:18:34 10° N 11:23:32 46° WNW 11:28:28 10° SW
H-2A R/B 3.2 11:19:16 10° NNE 11:24:34 51° E 11:29:51 10° S
ASTEX 1 4.2 11:21:10 10° NNW 11:25:20 29° WNW 11:29:29 10° SW
CZ-4C R/B 3.1 11:18:24 10° NW 11:25:59 78° WSW 11:34:38 10° SSE
Cosmos 1455 4.1 11:22:59 10° SSE 11:26:27 34° E 11:29:57 10° NNE
Cosmos 2341 Rocket 4.3 11:20:59 10° SSW 11:26:59 46° WNW 11:33:05 10° N
Cosmos 1833 Rocket 2.8 11:21:41 10° SSW 11:27:19 86° ESE 11:33:00 10° NNE
CZ-2D R/B 3.9 11:25:11 10° NNE 11:29:02 60° E 11:32:51 10° S
CZ-2C R/B 3.7 11:24:54 10° N 11:30:16 40° WNW 11:35:28 10° SW
CORIOLIS 4.2 11:32:13 10° NNE 11:37:36 87° ESE 11:42:56 10° SSW
Cosmos 1626 Rocket 3.6 11:34:23 10° N 11:38:44 86° E 11:43:03 10° S
FALCON 9 DEB 3.8 11:36:34 10° W 11:38:56 24° NNW 11:41:18 10° NNE
Cosmos 1242 Rocket 2.8 11:36:47 10° S 11:40:13 71° E 11:43:43 10° NNE
PSLV R/B 4.2 11:38:13 10° NNE 11:42:03 67° ESE 11:45:46 10° S
Cosmos 1437 Rocket 3.9 11:39:20 10° S 11:43:18 52° E 11:47:14 10° NNE
Cosmos 1408 2.7 11:39:58 10° N 11:43:37 80° E 11:47:13 10° S
Cosmos 1602 Rocket 4.0 11:39:41 10° N 11:44:04 65° E 11:48:23 10° SSE
COSMO-SKYMED 1 4.5 11:43:19 10° WSW 11:44:21 11° W 11:45:24 10° WNW
SMAP 3.1 11:41:00 10° N 11:45:34 59° WNW 11:50:08 10° SSW
In-Cosmos 22 Rocket 4.3 11:41:08 10° N 11:46:47 85° E 11:52:15 10° S
Cosmos 1980 Rocket 3.7 11:42:12 10° N 11:47:18 34° ENE 11:52:21 10° SE
Cosmos 1727 Rocket 4.1 11:41:02 10° N 11:47:24 88° W 11:53:40 10° S
